Flag for United Kingdom Weather past 2 weeks in Durham, England, United Kingdom

Now
59 °F

Passing clouds.


Feels Like: 59 °F
Forecast: 53 / 73 °F
Wind: No wind

Location: Newcastle

Current Time: Jul 24, 2014 at 1:48:11 AM

Latest Report: Jul 24, 2014 at 12:50 AM


Visibility: N/A

Pressure: 30.24 "Hg

Humidity: 94%

Dew point: 57 °F

Location of DurhamLocation

Historic Weather in Durham — Graph

°F

Durham temperature yesterday

Maximum temperature yesterday: 66 °F (at 2:20 PM)
Minimum temperature yesterday: 57 °F (at 3:20 AM)
Average temperature yesterday: 61 °F

Past Weeks' High & Low Weather Summary

 TemperatureHumidityPressure
High73 °F (Jul 12, 11:50 AM)100% (Jul 11, 6:20 AM)30.30 "Hg (Jul 11, 6:20 AM)
Low48 °F (Jul 9, 2:50 AM)46% (Jul 9, 2:50 PM)29.68 "Hg (Jul 13, 4:50 AM)
Average62 °F81%30.00 "Hg
* Reported Jul 9 12:50 AM — Jul 24 12:50 AM, Durham, Weather by CustomWeather, © 2014

Note: Actual official high and low records may vary slightly from our data, if they occured in-between our weather recording intervals... More about our weather records

Advertising

Durham weather history for previous 24 hours

 ConditionsComfort  
Time TempWeatherWind HumidityBarometerVisibility
12:50 AM
Jul 24
59 °FPassing clouds.No wind94%30.24 "HgN/A
12:20 AM59 °FPassing clouds.3 mph94%30.24 "HgN/A
11:50 PM
Jul 23
59 °FPassing clouds.No wind94%30.24 "HgN/A
11:20 PM59 °FPassing clouds.3 mph94%30.24 "HgN/A
10:50 PM59 °FPassing clouds.3 mph94%30.24 "HgN/A
10:20 PM59 °FPartly sunny.5 mph94%30.24 "HgN/A
9:50 PM59 °FPartly sunny.5 mph94%30.24 "HgN/A
9:20 PM61 °FPartly sunny.5 mph88%30.24 "HgN/A
8:50 PM61 °FPartly sunny.5 mph88%30.24 "HgN/A
8:20 PM61 °FPartly sunny.6 mph88%30.21 "HgN/A
7:50 PM61 °FScattered clouds.8 mph88%30.21 "HgN/A
7:20 PM63 °FScattered clouds.8 mph88%30.21 "HgN/A
6:50 PM64 °FPassing clouds.7 mph83%30.24 "HgN/A
6:20 PM64 °FPassing clouds.8 mph83%30.24 "HgN/A
5:50 PM64 °FPassing clouds.9 mph83%30.24 "HgN/A
5:20 PM66 °FPassing clouds.9 mph78%30.24 "HgN/A
4:50 PM66 °FPassing clouds.8 mph78%30.24 "HgN/A
4:20 PM66 °FScattered clouds.9 mph83%30.24 "HgN/A
3:50 PM66 °FPassing clouds.8 mph83%30.24 "HgN/A
3:20 PM66 °FScattered clouds.9 mph78%30.24 "HgN/A
2:50 PM66 °FScattered clouds.7 mph78%30.24 "HgN/A
2:20 PM66 °FPartly sunny.7 mph78%30.27 "HgN/A
1:20 PM64 °FPartly sunny.5 mph83%30.27 "HgN/A
12:20 PM63 °FLow clouds.5 mph83%30.27 "HgN/A
11:20 AM61 °FLow clouds.5 mph88%30.27 "HgN/A
6:20 AM57 °FLow clouds.2 mph94%30.30 "HgN/A
5:50 AM57 °FPartly cloudy.2 mph94%30.30 "HgN/A
5:20 AM57 °FPartly cloudy.3 mph94%30.30 "HgN/A
4:50 AM57 °FPartly cloudy.3 mph94%30.30 "HgN/A
3:50 AM57 °FPartly cloudy.3 mph94%30.30 "HgN/A
3:20 AM57 °FPartly cloudy.5 mph94%30.30 "HgN/A
2:50 AM59 °FPartly cloudy.2 mph94%30.30 "HgN/A
2:20 AM59 °FPartly cloudy.2 mph94%30.30 "HgN/A
1:50 AM59 °FPartly cloudy.3 mph94%30.30 "HgN/A
Weather by CustomWeather, © 2014

See weather overviewHow to use our weather pages